Overview Statistics Trail Chart Weather Telemetry Raw packets
 

This is the latest recevied weather packets stored in our database for station/object Ostrach. If no packets are shown the sender has not sent any weather packets the latest 10 day(s).

<< 4 5 6 7 8 9 10 >>
Time Temp. Humidity Pressure Rain* Wind** Luminosity Snow
1788445930 25.56° C 45% 1018.8 hPa 0 mm - - -
1788444130 25.56° C 45% 1018.9 hPa 0 mm - - -
1788442331 26.11° C 45% 1019.2 hPa 0 mm - - -
1788440530 25° C 49% 1019 hPa 0 mm - - -
1788438735 24.44° C 52% 1019.3 hPa 0 mm - - -
1788436935 24.44° C 51% 1019.4 hPa 0 mm - - -
1788435130 25.56° C 47% 1019.7 hPa 0 mm - - -
1788433330 24.44° C 52% 1019.9 hPa 0 mm - - -
1788431530 24.44° C 50% 1020 hPa 0 mm - - -
1788429731 23.89° C 50% 1020.3 hPa 0 mm - - -
1788427930 23.33° C 52% 1020.3 hPa 0 mm - - -
1788426130 22.78° C 53% 1020.3 hPa 0 mm - - -
1788424330 22.22° C 55% 1020.6 hPa 0 mm - - -
1788422530 20.56° C 61% 1020.1 hPa 0 mm - - -
1788420736 17.22° C 76% 1020.1 hPa 0 mm - - -
1788418930 14.44° C 90% 1020.4 hPa 0 mm - - -
1788417130 12.22° C 94% 1020.7 hPa 0 mm - - -
1788415329 10.56° C 93% 1020.4 hPa 0 mm - - -
1788413529 10° C 92% 1020.1 hPa 0 mm - - -
1788411729 10° C 91% 1019.9 hPa 0 mm - - -
1788409929 10.56° C 91% 1019.8 hPa 0 mm - - -
1788408130 10.56° C 91% 1019.7 hPa 0 mm - - -
1788406331 10.56° C 90% 1019.7 hPa 0 mm - - -
1788404529 11.11° C 90% 1019.8 hPa 0 mm - - -
1788402730 11.11° C 90% 1019.8 hPa 0 mm - - -

* Rain since midnight (hover to see other rain measurements)
** Current wind speed in m/s (hover to see current wind gust speed)